TimeEDT,TemperatureF,Dew PointF,Humidity,Sea Level PressureIn,VisibilityMPH,Wind Direction,Wind SpeedMPH,Gust SpeedMPH,PrecipitationIn,Events,Conditions,WindDirDegrees,DateUTC
12:53 AM,55.9,52.0,87,30.12,10.0,Calm,Calm,-,N/A,,Clear,0,2012-10-05 04:53:00
1:53 AM,54.0,52.0,93,30.13,9.0,Calm,Calm,-,N/A,,Clear,0,2012-10-05 05:53:00
2:53 AM,54.0,51.1,90,30.12,10.0,Calm,Calm,-,N/A,,Clear,0,2012-10-05 06:53:00
3:53 AM,55.9,52.0,87,30.12,10.0,Calm,Calm,-,N/A,,Clear,0,2012-10-05 07:53:00
4:53 AM,54.0,52.0,93,30.12,7.0,Calm,Calm,-,N/A,,Clear,0,2012-10-05 08:53:00
5:53 AM,54.0,51.1,90,30.12,9.0,Calm,Calm,-,0.01,,Clear,0,2012-10-05 09:53:00
6:53 AM,53.1,51.1,93,30.12,9.0,Calm,Calm,-,N/A,,Clear,0,2012-10-05 10:53:00
7:53 AM,55.9,52.0,87,30.13,7.0,Calm,Calm,-,N/A,,Clear,0,2012-10-05 11:53:00
8:53 AM,64.0,55.0,73,30.13,10.0,West,4.6,-,N/A,,Clear,260,2012-10-05 12:53:00
9:53 AM,66.9,55.0,66,30.13,10.0,Variable,4.6,-,N/A,,Clear,0,2012-10-05 13:53:00
11:53 AM,73.9,57.0,55,30.09,10.0,SW,5.8,-,N/A,,Clear,230,2012-10-05 15:53:00
12:53 PM,77.0,55.9,48,30.06,10.0,WNW,9.2,-,N/A,,Clear,290,2012-10-05 16:53:00
1:53 PM,77.0,53.1,43,30.04,10.0,WSW,12.7,16.1,N/A,,Clear,250,2012-10-05 17:53:00
2:53 PM,77.0,55.0,47,30.02,10.0,West,6.9,-,N/A,,Clear,260,2012-10-05 18:53:00
3:53 PM,77.0,55.9,48,30.01,10.0,Variable,4.6,-,N/A,,Mostly Cloudy,0,2012-10-05 19:53:00
4:53 PM,75.9,55.0,48,30.00,10.0,WSW,8.1,-,N/A,,Clear,240,2012-10-05 20:53:00
5:53 PM,73.9,54.0,50,30.00,10.0,WSW,4.6,-,N/A,,Clear,240,2012-10-05 21:53:00
6:53 PM,68.0,55.9,65,29.99,10.0,South,3.5,-,N/A,,Clear,190,2012-10-05 22:53:00
7:53 PM,64.9,55.0,70,29.99,10.0,SSW,5.8,-,N/A,,Clear,200,2012-10-05 23:53:00
8:53 PM,66.0,55.0,68,29.99,10.0,SSW,6.9,-,N/A,,Clear,200,2012-10-06 00:53:00
9:53 PM,66.0,55.0,68,29.97,10.0,SSW,5.8,-,N/A,,Clear,200,2012-10-06 01:53:00
10:53 PM,66.0,54.0,65,29.95,10.0,SSW,5.8,-,N/A,,Clear,200,2012-10-06 02:53:00
11:53 PM,66.0,53.1,63,29.93,10.0,SSW,6.9,-,N/A,,Clear,200,2012-10-06 03:53:00